| time (UTC) | temp C | wind direction | speed KPH | gust KPH | rain 1hr cm | rain 24hr cm | rain mn cm | humidity % | barometer mb |
| 20260507113024 | 14 | 9 | 1.6 | 3.2 | 0.00 | 0.03 | 0.00 | 64 | 1016.7 |
| 20260507111525 | 14 | 311 | 1.6 | 3.2 | 0.00 | 0.03 | 0.00 | 64 | 1016.8 |
| 20260507110024 | 15 | 76 | 1.6 | 4.8 | 0.00 | 0.03 | 0.00 | 64 | 1016.7 |
| 20260507104521 | 14 | 303 | 1.6 | 3.2 | 0.00 | 0.03 | 0.00 | 69 | 1016.9 |
| 20260507103020 | 14 | 19 | 1.6 | 6.4 | 0.00 | 0.03 | 0.00 | 74 | 1017.0 |
| 20260507101519 | 14 | 57 | 1.6 | 6.4 | 0.00 | 0.03 | 0.00 | 69 | 1017.0 |
| 20260507100022 | 14 | 360 | 0.0 | 4.8 | 0.00 | 0.03 | 0.00 | 73 | 1016.9 |
| 20260507094516 | 13 | 78 | 0.0 | 6.4 | 0.00 | 0.03 | 0.00 | 73 | 1017.0 |
| 20260507093012 | 13 | 298 | 0.0 | 3.2 | 0.00 | 0.03 | 0.00 | 76 | 1016.8 |
| 20260507091514 | 13 | 313 | 0.0 | 4.8 | 0.00 | 0.03 | 0.00 | 77 | 1016.9 |
| 20260507090010 | 13 | 90 | 0.0 | 6.4 | 0.00 | 0.03 | 0.00 | 78 | 1016.8 |
| 20260507084510 | 12 | 96 | 1.6 | 4.8 | 0.00 | 0.03 | 0.00 | 78 | 1016.7 |
| 20260507083100 | 12 | 103 | 1.6 | 4.8 | 0.00 | 0.03 | 0.00 | 78 | 1016.7 |
| 20260507081603 | 11 | 329 | 0.0 | 3.2 | 0.00 | 0.03 | 0.00 | 80 | 1016.7 |
| 20260507080053 | 11 | 324 | 0.0 | 1.6 | 0.00 | 0.03 | 0.00 | 82 | 1016.7 |
| 20260507074601 | 11 | 324 | 0.0 | 1.6 | 0.00 | 0.03 | 0.00 | 86 | 1016.6 |
| 20260507073045 | 11 | 324 | 0.0 | 0.0 | 0.00 | 0.03 | 0.00 | 88 | 1016.4 |
| 20260507071541 | 10 | 325 | 0.0 | 0.0 | 0.00 | 0.03 | 0.00 | 90 | 1016.4 |
| 20260507070037 | 10 | 324 | 0.0 | 0.0 | 0.00 | 0.03 | 0.00 | 92 | 1016.3 |
| 20260507064533 | 9 | 324 | 0.0 | 0.0 | 0.00 | 0.03 | 0.00 | 92 | 1016.2 |
| 20260507063030 | 8 | 324 | 0.0 | 1.6 | 0.00 | 0.03 | 0.00 | 93 | 1016.2 |
| 20260507061528 | 8 | 355 | 0.0 | 3.2 | 0.00 | 0.03 | 0.00 | 93 | 1016.1 |
| 20260507060027 | 8 | 274 | 0.0 | 3.2 | 0.00 | 0.03 | 0.00 | 94 | 1016.0 |
| 20260507054521 | 8 | 280 | 0.0 | 3.2 | 0.00 | 0.03 | 0.00 | 94 | 1016.0 |
| 20260507053020 | 8 | 355 | 0.0 | 4.8 | 0.00 | 0.03 | 0.00 | 95 | 1015.9 |
| 20260507051518 | 7 | 24 | 0.0 | 4.8 | 0.00 | 0.03 | 0.00 | 95 | 1015.8 |
| 20260507050025 | 7 | 314 | 0.0 | 1.6 | 0.00 | 0.03 | 0.00 | 95 | 1015.7 |
| 20260507044513 | 7 | 314 | 0.0 | 1.6 | 0.00 | 0.03 | 0.00 | 95 | 1015.5 |
| 20260507043010 | 7 | 314 | 0.0 | 1.6 | 0.00 | 0.03 | 0.00 | 95 | 1015.4 |
| 20260507041510 | 7 | 314 | 0.0 | 4.8 | 0.00 | 0.03 | 0.00 | 95 | 1015.3 |
| 20260507040009 | 7 | 325 | 0.0 | 3.2 | 0.00 | 0.03 | 0.00 | 95 | 1015.4 |
| 20260507034508 | 7 | 325 | 0.0 | 1.6 | 0.00 | 0.03 | 0.00 | 95 | 1015.3 |
| 20260507033017 | 7 | 325 | 0.0 | 3.2 | 0.00 | 0.03 | 0.00 | 94 | 1015.4 |
| 20260507031506 | 7 | 325 | 0.0 | 1.6 | 0.00 | 0.03 | 0.00 | 94 | 1015.4 |
| 20260507030006 | 7 | 325 | 0.0 | 1.6 | 0.00 | 0.05 | 0.00 | 94 | 1015.3 |
| 20260507024503 | 7 | 325 | 0.0 | 1.6 | 0.00 | 0.05 | 0.00 | 93 | 1015.3 |
| 20260507023002 | 7 | 325 | 0.0 | 1.6 | 0.00 | 0.05 | 0.00 | 93 | 1015.3 |
| 20260507021503 | 7 | 325 | 0.0 | 1.6 | 0.00 | 0.05 | 0.00 | 93 | 1015.2 |
| 20260507014605 | 7 | 355 | 0.0 | 3.2 | 0.00 | 0.05 | 0.00 | 93 | 1015.1 |
| 20260507013058 | 7 | 355 | 0.0 | 3.2 | 0.00 | 0.05 | 0.00 | 93 | 1015.1 |
| 20260507011557 | 7 | 232 | 0.0 | 1.6 | 0.00 | 0.05 | 0.00 | 94 | 1014.8 |
| 20260507004554 | 8 | 334 | 0.0 | 4.8 | 0.00 | 0.05 | 0.00 | 93 | 1014.7 |
| 20260507003053 | 8 | 212 | 0.0 | 6.4 | 0.00 | 0.05 | 0.00 | 93 | 1014.7 |
| 20260507001559 | 8 | 313 | 0.0 | 1.6 | 0.00 | 0.05 | 0.00 | 93 | 1014.8 |
| 20260507000050 | 8 | 126 | 0.0 | 3.2 | 0.00 | 0.05 | 0.00 | 92 | 1014.8 |
| 20260506234549 | 8 | 15 | 0.0 | 4.8 | 0.00 | 0.05 | 0.00 | 92 | 1014.9 |
| 20260506233102 | 8 | 265 | 0.0 | 4.8 | 0.00 | 0.05 | 0.00 | 91 | 1014.8 |
| 20260506231548 | 8 | 34 | 1.6 | 9.7 | 0.00 | 0.05 | 0.00 | 91 | 1014.8 |
| 20260506230045 | 8 | 302 | 0.0 | 8.0 | 0.00 | 0.10 | 0.00 | 90 | 1014.8 |
| 20260506224541 | 9 | 225 | 0.0 | 4.8 | 0.00 | 0.10 | 0.00 | 90 | 1014.7 |
| 20260506223036 | 9 | 346 | 0.0 | 8.0 | 0.00 | 0.10 | 0.00 | 90 | 1014.7 |
| 20260506221532 | 9 | 248 | 0.0 | 4.8 | 0.00 | 0.10 | 0.00 | 90 | 1014.5 |
| 20260506220027 | 9 | 320 | 1.6 | 8.0 | 0.00 | 0.15 | 0.10 | 90 | 1014.4 |
| 20260506214527 | 9 | 5 | 1.6 | 8.0 | 0.00 | 0.15 | 0.10 | 90 | 1014.5 |
| 20260506213025 | 9 | 32 | 1.6 | 9.7 | 0.00 | 0.15 | 0.10 | 90 | 1014.4 |
| 20260506211523 | 9 | 101 | 1.6 | 6.4 | 0.00 | 0.15 | 0.10 | 90 | 1014.2 |
| 20260506210025 | 9 | 146 | 3.2 | 12.9 | 0.00 | 0.18 | 0.10 | 89 | 1014.1 |
| 20260506204525 | 9 | 325 | 1.6 | 8.0 | 0.00 | 0.18 | 0.10 | 89 | 1014.1 |
| 20260506203021 | 9 | 311 | 1.6 | 9.7 | 0.00 | 0.18 | 0.10 | 89 | 1014.0 |
| 20260506201521 | 10 | 276 | 1.6 | 6.4 | 0.00 | 0.18 | 0.10 | 89 | 1013.9 |
| 20260506200019 | 10 | 13 | 1.6 | 9.7 | 0.00 | 0.18 | 0.10 | 88 | 1013.7 |
| 20260506194520 | 10 | 282 | 0.0 | 4.8 | 0.00 | 0.18 | 0.10 | 88 | 1013.6 |
| 20260506193017 | 10 | 321 | 1.6 | 8.0 | 0.00 | 0.18 | 0.10 | 87 | 1013.3 |
| 20260506191517 | 10 | 304 | 1.6 | 12.9 | 0.00 | 0.18 | 0.10 | 86 | 1013.2 |
| 20260506190015 | 10 | 226 | 1.6 | 6.4 | 0.00 | 0.18 | 0.10 | 86 | 1013.0 |
| 20260506184514 | 10 | 306 | 0.0 | 9.7 | 0.00 | 0.18 | 0.10 | 85 | 1013.0 |
| 20260506183013 | 11 | 320 | 1.6 | 11.3 | 0.00 | 0.18 | 0.10 | 85 | 1012.9 |
| 20260506181511 | 11 | 234 | 1.6 | 6.4 | 0.00 | 0.18 | 0.10 | 84 | 1012.7 |
| 20260506180010 | 11 | 12 | 3.2 | 12.9 | 0.00 | 0.18 | 0.10 | 83 | 1012.5 |
| 20260506174509 | 11 | 329 | 1.6 | 8.0 | 0.00 | 0.18 | 0.10 | 84 | 1012.4 |
| 20260506173011 | 11 | 40 | 3.2 | 8.0 | 0.00 | 0.18 | 0.10 | 83 | 1012.3 |
| 20260506171510 | 11 | 13 | 3.2 | 12.9 | 0.00 | 0.18 | 0.10 | 83 | 1012.2 |
| 20260506170006 | 11 | 41 | 1.6 | 6.4 | 0.00 | 0.18 | 0.10 | 83 | 1012.1 |
| 20260506164506 | 11 | 5 | 1.6 | 9.7 | 0.00 | 0.18 | 0.10 | 83 | 1012.2 |
| 20260506163007 | 11 | 355 | 1.6 | 6.4 | 0.00 | 0.18 | 0.10 | 83 | 1012.1 |
| 20260506161505 | 11 | 236 | 3.2 | 8.0 | 0.00 | 0.18 | 0.10 | 83 | 1012.0 |
| 20260506160011 | 11 | 5 | 1.6 | 6.4 | 0.00 | 0.18 | 0.10 | 84 | 1012.1 |
| 20260506154503 | 11 | 294 | 1.6 | 14.5 | 0.00 | 0.18 | 0.10 | 84 | 1012.1 |
| 20260506153003 | 11 | 355 | 1.6 | 16.1 | 0.03 | 0.18 | 0.10 | 85 | 1012.1 |
| 20260506151503 | 11 | 27 | 3.2 | 14.5 | 0.03 | 0.18 | 0.10 | 84 | 1012.1 |
| 20260506150002 | 12 | 284 | 1.6 | 16.1 | 0.03 | 0.18 | 0.10 | 82 | 1011.9 |
| 20260506144501 | 12 | 151 | 3.2 | 14.5 | 0.03 | 0.18 | 0.10 | 81 | 1012.0 |
| 20260506143108 | 12 | 288 | 3.2 | 9.7 | 0.00 | 0.15 | 0.08 | 82 | 1012.0 |
| 20260506141600 | 12 | 308 | 3.2 | 12.9 | 0.00 | 0.15 | 0.08 | 79 | 1011.8 |
| 20260506134556 | 12 | 275 | 1.6 | 14.5 | 0.00 | 0.15 | 0.08 | 80 | 1011.8 |
| 20260506133056 | 12 | 301 | 3.2 | 16.1 | 0.00 | 0.15 | 0.08 | 81 | 1012.0 |
| 20260506131554 | 12 | 161 | 1.6 | 9.7 | 0.00 | 0.15 | 0.08 | 81 | 1011.9 |
| 20260506130053 | 12 | 264 | 1.6 | 8.0 | 0.00 | 0.15 | 0.08 | 80 | 1011.7 |
| 20260506124553 | 12 | 42 | 1.6 | 6.4 | 0.00 | 0.15 | 0.08 | 83 | 1011.6 |
| 20260506123052 | 11 | 339 | 1.6 | 8.0 | 0.00 | 0.15 | 0.08 | 82 | 1011.6 |
| 20260506121552 | 11 | 5 | 1.6 | 8.0 | 0.00 | 0.15 | 0.08 | 80 | 1011.5 |
| 20260506120058 | 12 | 240 | 1.6 | 12.9 | 0.00 | 0.15 | 0.08 | 81 | 1011.3 |
| 20260506114558 | 12 | 19 | 1.6 | 17.7 | 0.00 | 0.15 | 0.08 | 81 | 1011.3 |